Weather History for Pierre, SD

Change the Weather History Date:

Friday, March 22, 2013

  Actual Average Record
Temperature  
Mean Temperature 25 °F 37 °F  
Max Temperature 29 °F 48 °F 84 °F (1939)
Min Temperature 21 °F 26 °F -3 °F (2002)
Degree Days  
Heating Degree Days 40 28  
Month to date heating degree days 803 711  
Since 1 July heating degree days 6227 6209  
Cooling Degree Days 0 0  
Month to date cooling degree days 0 0  
Year to date cooling degree days 0 0  
Moisture  
Dew Point 22 °F    
Average Humidity 85    
Maximum Humidity 92    
Minimum Humidity 78    
Precipitation  
Precipitation 0.07 in 0.04 in 0.52 in (1894)
Month to date precipitation T 0.79  
Year to date precipitation 1.66 1.80  
Snow  
Snow 0.00 in 0.20 in 8.00 in (1936)
Month to date snowfall 0.2 4.6  
Since 1 July snowfall 31.9 26.4  
Snow Depth -    
Sea Level Pressure  
Sea Level Pressure 29.96 in    
Wind  
Wind Speed 8 mph (ESE)    
Max Wind Speed 17 mph    
Max Gust Speed 22 mph    
Visibility 4 miles    
Events Snow    
T = Trace of Precipitation, MM = Missing Value Source: NWS Daily Summary

Daily Weather History Graph

Daily Weather History Graph

Search for Another Location

Airport:

Trip Planner

Search our weather history database for the weather conditions in past years. The results will help you decide how hot, cold, wet, or windy it might be!

Date:

Astronomy

Mar. 22, 2013 Rise Set
Actual Time 7:40 AM CDT 7:56 PM CDT
Civil Twilight 7:11 AM CDT 8:25 PM CDT
Nautical Twilight 6:37 AM CDT 8:59 PM CDT
Astronomical Twilight 6:02 AM CDT 9:34 PM CDT
Moon 3:16 PM CDT (3/22) 4:51 AM CDT (3/22)
Length of Visible Light 13h 14m
Length of Day
12h 16m
Waxing Gibbous, 77% of the Moon is Illuminated
Mar 22
Waxing Gibbous
Mar 27
Full
Apr 2
Last Quarter
Apr 10
New
Apr 18
First Quarter

Hourly Weather History & Observations

Time (CDT) Temp. Windchill Dew Point Humidity Pressure Visibility Wind Dir Wind Speed Gust Speed Precip Events Conditions
12:53 AM 27.0 °F 16.1 °F 19.0 °F 72% 29.98 in 10.0 mi ESE 12.7 mph - 0.00 in   Overcast
1:53 AM 26.1 °F 15.6 °F 19.9 °F 78% 29.98 in 3.0 mi SE 11.5 mph - 0.00 in Snow Light Snow
2:20 AM 26.6 °F 16.2 °F 21.2 °F 80% 29.91 in 1.8 mi ESE 11.5 mph - 0.00 in Snow Light Snow
2:44 AM 24.8 °F 14.0 °F 21.2 °F 86% 29.92 in 1.8 mi ESE 11.5 mph - 0.00 in Snow Light Snow
2:51 AM 24.8 °F 14.0 °F 21.2 °F 86% 29.92 in 1.8 mi ESE 11.5 mph - 0.00 in Snow Light Snow
2:53 AM 25.0 °F 13.6 °F 21.9 °F 88% 29.98 in 1.8 mi ESE 12.7 mph - 0.00 in Snow Light Snow
3:05 AM 24.8 °F 14.6 °F 21.2 °F 86% 29.92 in 2.0 mi ESE 10.4 mph - 0.00 in Snow Light Snow
3:30 AM 24.8 °F 14.6 °F 21.2 °F 86% 29.92 in 1.5 mi ESE 10.4 mph - 0.00 in Snow Light Snow
3:45 AM 24.8 °F 14.0 °F 21.2 °F 86% 29.91 in 1.2 mi ESE 11.5 mph - 0.00 in Snow Light Snow
3:53 AM 24.1 °F 13.7 °F 21.9 °F 91% 29.98 in 1.2 mi ESE 10.4 mph - 0.00 in Snow Light Snow
4:41 AM 24.8 °F 13.4 °F 21.2 °F 86% 29.91 in 1.5 mi ESE 12.7 mph - 0.00 in Snow Light Snow
4:53 AM 24.1 °F 13.1 °F 21.9 °F 91% 29.97 in 2.0 mi ESE 11.5 mph - 0.00 in Snow Light Snow
4:59 AM 24.8 °F 15.3 °F 21.2 °F 86% 29.91 in 1.8 mi ESE 9.2 mph - 0.00 in Snow Light Snow
5:15 AM 24.8 °F 14.0 °F 21.2 °F 86% 29.91 in 1.0 mi ESE 11.5 mph - 0.00 in Snow Light Snow
5:21 AM 24.8 °F 14.0 °F 21.2 °F 86% 29.91 in 0.8 mi ESE 11.5 mph - 0.00 in Snow Light Snow
5:44 AM 24.8 °F 14.0 °F 21.2 °F 86% 29.91 in 0.8 mi ESE 11.5 mph - 0.00 in Snow Light Snow
5:53 AM 24.1 °F 13.1 °F 21.9 °F 91% 29.97 in 1.2 mi ESE 11.5 mph - 0.00 in Snow Light Snow
6:30 AM 24.8 °F 14.6 °F 21.2 °F 86% 29.90 in 1.2 mi East 10.4 mph - 0.00 in Snow Light Snow
6:53 AM 24.1 °F 13.7 °F 21.9 °F 91% 29.96 in 2.0 mi East 10.4 mph - 0.00 in Snow Light Snow
7:07 AM 24.8 °F 14.6 °F 21.2 °F 86% 29.90 in 1.5 mi East 10.4 mph - 0.00 in Snow Light Snow
7:26 AM 24.8 °F 14.0 °F 21.2 °F 86% 29.90 in 2.5 mi East 11.5 mph - 0.00 in Snow Light Snow
7:41 AM 24.8 °F 14.6 °F 21.2 °F 86% 29.90 in 2.0 mi East 10.4 mph - 0.00 in Snow Light Snow
7:51 AM 24.1 °F 13.7 °F 21.9 °F 91% 29.97 in 1.8 mi ESE 10.4 mph - 0.00 in Snow Light Snow
8:22 AM 21.2 °F 11.7 °F 19.4 °F 93% 29.91 in 2.0 mi East 8.1 mph - 0.00 in Snow Light Snow
8:36 AM 21.2 °F 10.9 °F 19.4 °F 93% 29.90 in 4.0 mi East 9.2 mph - 0.00 in   Overcast
8:53 AM 21.0 °F 10.6 °F 19.0 °F 92% 29.97 in 5.0 mi East 9.2 mph - 0.00 in   Overcast
9:53 AM 25.0 °F 13.6 °F 21.9 °F 88% 29.96 in 9.0 mi ESE 12.7 mph - N/A   Overcast
10:45 AM 26.6 °F 15.7 °F 21.2 °F 80% 29.91 in 9.0 mi SE 12.7 mph - N/A   Overcast
10:53 AM 26.1 °F 15.6 °F 21.9 °F 84% 29.97 in 8.0 mi SE 11.5 mph - N/A   Overcast
11:20 AM 26.6 °F 16.8 °F 21.2 °F 80% 29.91 in 2.5 mi SSE 10.4 mph - 0.00 in Snow Light Snow
11:53 AM 27.0 °F 17.3 °F 23.0 °F 85% 29.98 in 3.0 mi SSE 10.4 mph - 0.00 in Snow Light Snow
12:53 PM 27.0 °F 18.0 °F 23.0 °F 85% 29.98 in 3.0 mi SSE 9.2 mph - 0.00 in Snow Light Snow
1:53 PM 28.0 °F 20.0 °F 23.0 °F 81% 29.98 in 6.0 mi SSE 8.1 mph - 0.03 in   Haze
2:53 PM 28.0 °F 20.8 °F 23.0 °F 81% 29.96 in 7.0 mi ESE 6.9 mph - 0.03 in   Overcast
3:53 PM 28.0 °F 20.0 °F 24.1 °F 85% 29.98 in 7.0 mi East 8.1 mph - 0.01 in   Overcast
4:53 PM 28.9 °F 21.1 °F 24.1 °F 82% 29.99 in 8.0 mi East 8.1 mph - N/A   Overcast
5:53 PM 28.0 °F 20.8 °F 24.1 °F 85% 30.01 in 8.0 mi ESE 6.9 mph - N/A   Overcast
6:53 PM 28.9 °F 20.4 °F 24.1 °F 82% 30.00 in 8.0 mi East 9.2 mph - N/A   Overcast
7:43 PM 28.4 °F 24.6 °F 24.8 °F 86% 29.96 in 7.0 mi East 3.5 mph - N/A   Overcast
7:53 PM 28.0 °F 24.2 °F 24.1 °F 85% 30.03 in 7.0 mi East 3.5 mph - N/A   Overcast
8:23 PM 28.4 °F 24.6 °F 24.8 °F 86% 29.96 in 8.0 mi ENE 3.5 mph - N/A   Overcast
8:40 PM 28.4 °F 24.6 °F 24.8 °F 86% 29.98 in 8.0 mi ENE 3.5 mph - N/A   Overcast
8:53 PM 28.0 °F - 24.1 °F 85% 30.05 in 8.0 mi Calm Calm - N/A   Overcast
9:18 PM 28.4 °F - 24.8 °F 86% 30.00 in 7.0 mi Calm Calm - N/A   Overcast
9:53 PM 28.0 °F 20.8 °F 24.1 °F 85% 30.07 in 7.0 mi NNE 6.9 mph - N/A   Overcast
10:53 PM 27.0 °F 20.5 °F 24.1 °F 89% 30.09 in 6.0 mi East 5.8 mph - N/A   Overcast
11:53 PM 27.0 °F 23.0 °F 24.1 °F 89% 30.12 in 5.0 mi East 3.5 mph - N/A   Overcast